Location: Althorst
(53.6379°N, 10.7715°E)
Time: 00:34:22
(UTC+00:00)

COSMO-SKYMED 1 - Pass Details

Date: 10 December 2019
Orbit: 621 x 623 km, 97.9° (Epoch: 17 January)

Event Time Altitude Azimuth Distance (km) Brightness Sun altitude
Exits shadow 17:29:55 56° 53° (NE) 748 2.6 -21.2°
Maximum altitude 17:30:37 66° 102° (ESE) 683 2.5 -21.3°
Drops below altitude 10° 17:34:55 10° 186° (S) 1,990 5.3 -21.9°
Sets 17:37:07 0° 189° (S) 2,892 6.2 -22.3°
